Redding, CA

3:35 PM PST on November 16, 2019 (GMT -0800)
Redding Municipal

Weather History for KRDD - September, 2019

Change the Weather History Date:

Monday, September 30, 2019

  Actual Average Record
Temperature  
Mean Temperature 56 °F -  
Max Temperature 66 °F 86 °F 106 °F (1966)
Min Temperature 46 °F 54 °F 39 °F (1971)
Degree Days  
Heating Degree Days 9    
Cooling Degree Days 0    
Growing Degree Days 6 (Base 50)    
Moisture  
Dew Point 43 °F    
Average Humidity 77    
Maximum Humidity 100    
Minimum Humidity 31    
Precipitation  
Precipitation 0.00 in 0.03 in 0.82 in (1894)
Month to date precipitation 0.64  
Year to date precipitation 21.77  
Sea Level Pressure  
Sea Level Pressure 29.94 in    
Wind  
Wind Speed 1 mph (NNW)    
Max Wind Speed 8 mph    
Max Gust Speed -    
Visibility 7 miles    
Events Fog    
T = Trace of Precipitation, MM = Missing Value Source: NWS Daily Summary

Daily Weather History Graph

Daily Weather History Graph

Search for Another Location

Airport or City:

Astronomy

Sep. 30, 2019 Rise Set
Actual Time 7:04 AM PDT 6:53 PM PDT
Civil Twilight 6:37 AM PDT 7:20 PM PDT
Nautical Twilight 6:05 AM PDT 7:51 PM PDT
Astronomical Twilight 5:33 AM PDT 8:23 PM PDT
Moon 9:15 AM PDT (9/30) 8:31 PM PDT (9/30)
Length of Visible Light 12h 43m
Length of Day
11h 48m
Waxing Crescent, 6% of the Moon is Illuminated
Sep 30
Waxing Crescent
Oct 5
First Quarter
Oct 13
Full
Oct 21
Last Quarter
Oct 27
New

Hourly Weather History & Observations

Time (PDT) Temp. Windchill Dew Point Humidity Pressure Visibility Wind Dir Wind Speed Gust Speed Precip Events Conditions
12:53 AM 50.0 °F - 48.0 °F 93% 29.86 in 10.0 mi Calm Calm - N/A   Mostly Cloudy
1:28 AM 48.9 °F - 46.9 °F 93% 29.87 in 10.0 mi Calm Calm - N/A   Scattered Clouds
1:53 AM 46.9 °F - 46.0 °F 97% 29.88 in 10.0 mi Calm Calm - N/A   Partly Cloudy
2:53 AM 48.0 °F - 46.9 °F 96% 29.88 in 9.0 mi West 3.5 mph - N/A   Overcast
3:29 AM 48.0 °F - 46.9 °F 96% 29.88 in 9.0 mi SE 3.5 mph - N/A   Overcast
3:53 AM 48.9 °F - 46.9 °F 93% 29.88 in 10.0 mi Calm Calm - N/A   Overcast
4:53 AM 46.9 °F - 45.0 °F 93% 29.90 in 10.0 mi Calm Calm - N/A   Partly Cloudy
5:43 AM 46.9 °F - 45.0 °F 93% 29.91 in 10.0 mi Calm Calm - N/A   Overcast
5:53 AM 46.9 °F - 46.9 °F 100% 29.91 in 0.5 mi Calm Calm - N/A Fog Fog
6:02 AM 46.9 °F - 46.9 °F 100% 29.91 in 0.2 mi Calm Calm - N/A Fog Fog
6:29 AM 46.9 °F - 46.0 °F 97% 29.92 in 1.0 mi Calm Calm - N/A   Overcast
6:42 AM 46.9 °F - 46.9 °F 100% 29.92 in 0.8 mi Calm Calm - N/A   Overcast
6:53 AM 46.9 °F - 46.0 °F 97% 29.92 in 0.5 mi Calm Calm - N/A Fog Fog
7:01 AM 46.9 °F - 46.0 °F 97% 29.93 in 0.2 mi Calm Calm - N/A Fog Fog
7:53 AM 46.0 °F 44.8 °F 46.0 °F 100% 29.94 in 0.5 mi WNW 3.5 mph - N/A Fog Fog
8:02 AM 46.0 °F - 46.0 °F 100% 29.94 in 0.2 mi Calm Calm - N/A Fog Fog
8:17 AM 46.9 °F - 46.0 °F 97% 29.95 in 0.5 mi Calm Calm - N/A Fog Fog
8:28 AM 46.9 °F - 46.0 °F 97% 29.95 in 1.5 mi Calm Calm - N/A   Overcast
8:47 AM 48.2 °F - 46.4 °F 93% 29.96 in 3.0 mi Calm Calm - N/A   Overcast
8:53 AM 48.9 °F - 46.9 °F 93% 29.96 in 6.0 mi Calm Calm - N/A   Overcast
9:13 AM 51.1 °F - 48.9 °F 92% 29.96 in 10.0 mi Variable 3.5 mph - N/A   Mostly Cloudy
9:53 AM 54.0 °F - 46.9 °F 77% 29.97 in 10.0 mi ENE 3.5 mph - N/A   Scattered Clouds
10:53 AM 55.9 °F - 42.1 °F 60% 29.98 in 10.0 mi Calm Calm - N/A   Scattered Clouds
11:53 AM 57.0 °F - 41.0 °F 55% 29.98 in 10.0 mi Calm Calm - N/A   Mostly Cloudy
12:53 PM 60.1 °F - 39.0 °F 46% 29.98 in 10.0 mi Variable 3.5 mph - N/A   Partly Cloudy
1:53 PM 64.0 °F - 39.0 °F 40% 29.96 in 10.0 mi Variable 3.5 mph - N/A   Clear
2:53 PM 61.0 °F - 39.9 °F 46% 29.96 in 10.0 mi West 8.1 mph - N/A   Scattered Clouds
3:53 PM 63.0 °F - 36.0 °F 37% 29.95 in 10.0 mi SSW 4.6 mph - N/A   Scattered Clouds
4:53 PM 64.0 °F - 35.1 °F 34% 29.95 in 10.0 mi Calm Calm - N/A   Scattered Clouds
5:53 PM 64.9 °F - 33.1 °F 31% 29.95 in 10.0 mi NNW 3.5 mph - N/A   Overcast
6:53 PM 62.1 °F - 37.9 °F 41% 29.95 in 10.0 mi Variable 3.5 mph - N/A   Partly Cloudy
7:53 PM 59.0 °F - 39.0 °F 48% 29.96 in 10.0 mi NNE 5.8 mph - N/A   Clear
8:53 PM 55.9 °F - 39.9 °F 55% 29.97 in 10.0 mi North 5.8 mph - N/A   Clear
9:53 PM 53.1 °F - 41.0 °F 64% 29.98 in 10.0 mi Calm Calm - N/A   Clear
10:53 PM 51.1 °F - 41.0 °F 68% 29.98 in 10.0 mi North 5.8 mph - N/A   Clear
11:53 PM 48.9 °F - 41.0 °F 74% 29.98 in 10.0 mi NNW 3.5 mph - N/A   Clear